Terug naar catalogus

NOAA 16 DEB

ActiefPO
NORAD 41304·DEBRIS·🇺🇸 United States

Gelanceerd Sep 21, 2000 vanaf Vandenberg Space Force Base

Loading…

Volgende Passages (komende 24 uur)

TLE

VersSource: Space-Track

Epoch: Sep 12, 2026, 22:17 UTC

1 41304U 00055HG  26255.92872679  .00003925  00000-0  13147-2 0  9999
2 41304  99.0840  68.1637 0031182  18.1649 342.0642 14.37661101553104

Volg NOAA 16 DEB in realtime met AllMySat

Download on the App Store